Location: Newark
(41.6500°N, 71.4833°W)
Time: 02:54:31
(UTC+00:00)

ISS - Visible Passes

Search period start: 12 December 2019 00:00
Search period end: 22 December 2019 00:00
Orbit: 411 x 421 km, 51.6° (Epoch: 12 December)

Date Brightness Start Highest point End Pass type
(mag) Time Alt. Az. Time Alt. Az. Time Alt. Az.
12 Dec -1.9 22:03:39 10° WNW 22:06:44 34° SW 22:09:48 10° SSE visible
14 Dec -0.3 22:04:30 10° WSW 22:06:04 13° SW 22:07:38 10° SSW visible
19 Dec -0.7 11:32:11 10° S 11:34:40 20° SE 11:37:09 10° E visible
20 Dec -0.3 10:45:08 10° SSE 10:46:15 11° SE 10:47:24 10° ESE visible
21 Dec -3.0 11:30:42 10° SW 11:33:56 55° SE 11:37:12 10° ENE visible
